星链-5213 (STARLINK-5213 )

导读

STARLINK-5213是美国SpaceX公司星链(Starlink)星座的卫星,于2022年10月20日发射,属于星链第二代组网卫星。它运行在近地轨道,配备星链mini激光通信设备,可实现高速星间链路,为全球提供高速度、低延迟的宽带互联网服务,服务范围覆盖地面固定及移动终端,支撑星链全球组网运营。

基本信息
目录编号:
54093
目录名称:
STARLINK-5213
国际标识:
2022-136AU
轨道中心:
EARTH
卫星名称:
星链-5213
卫星全名:
星链-5213 (STARLINK-5213 )
卫星状态:
在轨 (已飞行1416 天)
发射日期:
2022-10-20 UTC
国别 :
美国 (US)
星等 :
--
轨道信息
数据来源 国际轨道数据 AOE轨道数据
星历时间 2026-09-05T12:10:51+0800
6小时前
查看轨道信息
2026-09-01T02:00:00+0800
4天前
查看轨道信息
半长轴 6917.935km 6917.919km
偏心率 0.0001226 0.0001198
轨道倾角 53.160° 53.159°
近地点辐角 82.989° 89.969°
升交点赤经 247.566° 267.453°
平近点角 277.124° 345.643°
近地点 538.949km 538.953km
远地点 540.647km 540.611km
周期 95.439分钟 95.438分钟
每日圈数 15.088223 15.088275
详细信息
固有亮度:
5
最大亮度:
2.5
卫星平台:
Starlink v1.5
覆盖范围:
全球
运营商:
太空探索技术公司
运营商所在国:
美国
制造商(研发单位):
太空探索技术公司
制造商所在国:
美国
使用方式:
暂无
卫星简介
星链(Starlink)计划是由太空探索技术公司(SpaceX)提出的一个巨型低轨卫星互联网星座项目,计划在2019年至2024年间在太空搭建由约1.2万颗卫星组成的“星链”网络,其中1584颗将部署在地球上空550千米处的近地轨道,并从2020年开始工作。该卫星仍在工作。
2D轨道图
3D轨道图
轨道高度分析图
轨道倾角分析图
轨道综合分析图
查看轨道综合分析图
交会数据列表
事件ID 空间交会对象 最接近时刻(TCA) 交会距离 交会风险概率(CRP) 交会风险指数(CRI) 操作
CDM_260904-092905-409306-325421
YAM-8 (63254)
2026-09-04T
09:29:47+0000
1.748 km
极远距离
3.614726E-6 低风险 0.46